Weather History for Key West NAF, FL

Change the Weather History Date:

Wednesday, March 12, 2014

  Actual Average Record
Temperature  
Mean Temperature 76 °F -  
Max Temperature 84 °F 78 °F 84 °F (1952)
Min Temperature 71 °F 69 °F 55 °F (1998)
Cooling Degree Days 12    
Growing Degree Days 26 (Base 50)    
Moisture  
Dew Point 69 °F    
Average Humidity 78    
Maximum Humidity 96    
Minimum Humidity 60    
Precipitation  
Precipitation 0.86 in - - ()
Sea Level Pressure  
Sea Level Pressure 29.88 in    
Wind  
Wind Speed 12 mph (SW)    
Max Wind Speed 25 mph    
Max Gust Speed 32 mph    
Visibility 8 miles    
Events Rain , Thunderstorm    
Averages and records for this station are not official NWS values.
T = Trace of Precipitation, MM = Missing Value Source: NWS Daily Summary

Daily Weather History Graph

Daily Weather History Graph

Search for Another Location

Airport:

Trip Planner

Search our weather history database for the weather conditions in past years. The results will help you decide how hot, cold, wet, or windy it might be!

Date:

Astronomy

Mar. 12, 2014 Rise Set
Actual Time 7:38 AM EDT 7:34 PM EDT
Civil Twilight 7:16 AM EDT 7:57 PM EDT
Nautical Twilight 6:49 AM EDT 8:23 PM EDT
Astronomical Twilight 6:23 AM EDT 8:50 PM EDT
Moon 4:21 PM EDT (3/12) 4:50 AM EDT (3/12)
Length of Visible Light 12h 41m
Length of Day
11h 55m
Waxing Gibbous, 85% of the Moon is Illuminated
Mar 12
Waxing Gibbous
Mar 16
Full
Mar 23
Last Quarter
Mar 30
New
Apr 7
First Quarter

Hourly Weather History & Observations

Time (EDT) Temp. Heat Index Dew Point Humidity Pressure Visibility Wind Dir Wind Speed Gust Speed Precip Events Conditions
12:53 AM 75.9 °F - 68.0 °F 76% 29.90 in 10.0 mi SSE 13.8 mph - N/A   Clear
1:53 AM 75.9 °F - 69.1 °F 79% 29.89 in 10.0 mi South 6.9 mph - N/A   Mostly Cloudy
2:53 AM 75.0 °F - 69.1 °F 82% 29.87 in 10.0 mi South 9.2 mph - N/A   Clear
3:53 AM 75.0 °F - 69.1 °F 82% 29.86 in 10.0 mi South 5.8 mph - N/A   Scattered Clouds
4:53 AM 75.0 °F - 66.9 °F 76% 29.83 in 10.0 mi South 12.7 mph - N/A   Clear
5:53 AM 75.0 °F - 66.9 °F 76% 29.84 in 10.0 mi South 10.4 mph - N/A   Clear
5:58 AM 75.0 °F - 68.0 °F 79% 29.84 in 10.0 mi South 12.7 mph - N/A   Clear
6:53 AM 75.0 °F - 68.0 °F 79% 29.85 in 10.0 mi South 11.5 mph - N/A   Clear
7:53 AM 75.0 °F - 68.0 °F 79% 29.86 in 10.0 mi South 12.7 mph - N/A   Scattered Clouds
8:53 AM 78.1 °F - 66.9 °F 68% 29.88 in 10.0 mi South 11.5 mph - N/A   Scattered Clouds
9:53 AM 79.0 °F - 66.9 °F 66% 29.90 in 10.0 mi SSW 11.5 mph - N/A   Scattered Clouds
10:53 AM 82.0 °F 84.5 °F 66.9 °F 60% 29.91 in 10.0 mi SSW 15.0 mph - N/A   Scattered Clouds
11:53 AM 82.0 °F 84.5 °F 66.9 °F 60% 29.92 in 10.0 mi SSW 15.0 mph - N/A   Scattered Clouds
12:53 PM 82.9 °F 85.8 °F 68.0 °F 60% 29.92 in 10.0 mi SW 15.0 mph - N/A   Mostly Cloudy
1:53 PM 82.0 °F 84.9 °F 68.0 °F 62% 29.89 in 10.0 mi SW 13.8 mph - N/A   Mostly Cloudy
2:53 PM 82.0 °F 85.5 °F 69.1 °F 65% 29.86 in 10.0 mi SW 12.7 mph - N/A   Partly Cloudy
3:53 PM 82.0 °F 85.5 °F 69.1 °F 65% 29.85 in 10.0 mi SW 13.8 mph - N/A   Scattered Clouds
4:53 PM 81.0 °F 84.1 °F 69.1 °F 67% 29.83 in 10.0 mi WSW 13.8 mph - N/A   Scattered Clouds
5:53 PM 80.1 °F 82.9 °F 69.1 °F 69% 29.83 in 10.0 mi WSW 11.5 mph - N/A   Scattered Clouds
6:53 PM 78.1 °F - 70.0 °F 76% 29.84 in 10.0 mi SW 9.2 mph - N/A   Mostly Cloudy
7:53 PM 78.1 °F - 71.1 °F 79% 29.85 in 10.0 mi SW 9.2 mph - N/A   Mostly Cloudy
8:43 PM 78.1 °F - 71.1 °F 79% 29.87 in 10.0 mi WSW 8.1 mph - 0.00 in Rain Light Rain
8:53 PM 78.1 °F - 71.1 °F 79% 29.87 in 10.0 mi WSW 8.1 mph - 0.00 in Rain Light Rain
8:57 PM 78.1 °F - 71.1 °F 79% 29.88 in 10.0 mi SW 6.9 mph - 0.00 in   Overcast
9:53 PM 77.0 °F - 72.0 °F 84% 29.89 in 10.0 mi West 6.9 mph - 0.00 in   Overcast
10:00 PM 77.0 °F - 72.0 °F 84% 29.89 in 10.0 mi WSW 6.9 mph - N/A   Mostly Cloudy
10:15 PM 77.0 °F - 72.0 °F 84% 29.89 in 10.0 mi WSW 5.8 mph - N/A   Overcast
10:53 PM 77.0 °F - 72.0 °F 84% 29.90 in 6.0 mi WNW 11.5 mph - N/A   Haze
11:01 PM 75.0 °F - 71.1 °F 87% 29.92 in 2.5 mi West 23.0 mph 27.6 mph 0.10 in Thunderstorm Overcast
11:05 PM 73.9 °F - 71.1 °F 91% 29.91 in 1.5 mi West 24.2 mph 31.1 mph 0.19 in Thunderstorm Overcast
11:08 PM 73.9 °F - 71.1 °F 91% 29.91 in 0.8 mi West 25.3 mph 32.2 mph 0.35 in Thunderstorm Overcast
11:21 PM 73.0 °F - 72.0 °F 96% 29.92 in 1.0 mi WNW 23.0 mph 31.1 mph 0.71 in Thunderstorm Overcast
11:26 PM 72.0 °F - 70.0 °F 93% 29.92 in 1.2 mi NW 21.9 mph - 0.83 in Thunderstorm Overcast
11:35 PM 72.0 °F - 70.0 °F 93% 29.93 in 3.0 mi NW 16.1 mph - 0.85 in Thunderstorm Overcast
11:50 PM 71.6 °F - 69.8 °F 94% 29.93 in 9.0 mi NW 18.4 mph - 0.85 in Thunderstorm Thunderstorm
11:53 PM 72.0 °F - 69.1 °F 91% 29.93 in 7.0 mi NW 16.1 mph - 0.86 in Thunderstorm Thunderstorm